Overview Statistics Trail Chart Weather Telemetry Raw packets
 

This is the latest recevied weather packets stored in our database for station/object CE3TDM-10. If no packets are shown the sender has not sent any weather packets the latest 10 day(s).

<< 1 2 3 4 5 >>
Time Temp. Humidity Pressure Rain* Wind** Luminosity Snow
1788589041 23.89° C 31% 922.6 hPa - - - -
1788588141 23.89° C 31% 922.7 hPa - - - -
1788587241 23.89° C 31% 922.9 hPa - - - -
1788586341 23.89° C 30% 922.9 hPa - - - -
1788585441 23.89° C 30% 923 hPa - - - -
1788584541 24.44° C 30% 923.2 hPa - - - -
1788583641 24.44° C 30% 923.3 hPa - - - -
1788582740 25° C 29% 923.4 hPa - - - -
1788581883 26.11° C 29% 923.3 hPa - - - -
1788581840 26.11° C 29% 923.3 hPa - - - -
1788579140 27.22° C 28% 923.6 hPa - - - -
1788577340 27.78° C 28% 923.7 hPa - - - -
1788576440 28.33° C 28% 923.9 hPa - - - -
1788575540 28.89° C 27% 923.8 hPa - - - -
1788574640 29.44° C 28% 923.8 hPa - - - -
1788573740 29.44° C 28% 923.8 hPa - - - -
1788572874 28.33° C 30% 923.9 hPa - - - -
1788572840 28.33° C 30% 923.9 hPa - - - -
1788571939 23.33° C 32% 923.9 hPa - - - -
1788571110 23.33° C 32% 923.9 hPa - - - -
1788571039 23.33° C 32% 923.9 hPa - - - -
1788570139 23.33° C 32% 923.9 hPa - - - -
1788569240 23.33° C 32% 923.8 hPa - - - -
1788568341 23.33° C 31% 923.8 hPa - - - -
1788567441 23.89° C 32% 923.7 hPa - - - -

* Rain since midnight (hover to see other rain measurements)
** Current wind speed in m/s (hover to see current wind gust speed)